Total_Precipitation_Accumulation
1.55 1.64 1.36 1.26 1.21 1.38 1.64 1.60 1.44 1.46 1.54 1.55 1.39 1.23 1.04 0.79 0.70 0.67 0.57 0.75 0.87 0.85 0.91 0.94 0.94 0.91 0.83 0.75 0.69 0.68 0.70 0.70 0.61 0.49 0.40 0.28 0.22 0.23 0.16 0.10 0.06 0.05 0.05
1.57 1.45 1.41 1.39 1.30 1.46 1.51 1.58 1.61 1.74 1.77 1.82 1.55 1.36 1.21 1.02 0.91 0.89 0.76 0.84 0.93 0.86 0.84 0.92 0.94 0.93 0.94 0.89 0.80 0.76 0.73 0.72 0.63 0.51 0.43 0.36 0.28 0.26 0.24 0.20 0.19 0.12 0.08
1.52 1.53 1.43 1.31 1.36 1.46 1.51 1.58 1.61 1.68 1.57 1.60 1.49 1.43 1.34 1.20 1.13 1.03 0.89 0.76 0.70 0.80 0.84 0.83 0.85 0.86 0.91 0.93 0.95 0.91 0.75 0.64 0.56 0.44 0.37 0.37 0.33 0.27 0.24 0.25 0.26 0.22 0.16
1.28 1.33 1.22 1.21 1.30 1.22 1.20 1.23 1.21 1.26 1.28 1.39 1.34 1.22 1.18 1.18 1.14 1.08 0.92 0.77 0.66 0.53 0.66 0.82 0.87 0.78 0.87 0.97 1.05 1.07 0.82 0.58 0.45 0.39 0.34 0.31 0.32 0.26 0.19 0.16 0.18 0.23 0.19
0.78 0.82 0.80 0.83 0.90 0.90 0.90 0.87 1.01 1.08 1.13 1.23 1.26 1.08 1.02 1.09 1.08 1.05 0.95 0.76 0.75 0.63 0.53 0.63 0.76 0.71 0.84 0.98 1.10 1.15 1.04 0.77 0.53 0.45 0.41 0.37 0.36 0.27 0.19 0.16 0.15 0.15 0.15
0.61 0.57 0.56 0.57 0.57 0.60 0.66 0.69 0.72 0.83 0.85 0.90 0.91 0.86 0.88 0.81 0.87 0.87 0.77 0.71 0.64 0.54 0.48 0.57 0.69 0.58 0.71 0.87 0.97 1.06 1.13 1.08 0.81 0.60 0.49 0.49 0.52 0.41 0.22 0.17 0.16 0.16 0.14
0.43 0.45 0.41 0.40 0.40 0.39 0.40 0.44 0.51 0.56 0.59 0.68 0.71 0.66 0.62 0.58 0.60 0.57 0.56 0.59 0.53 0.47 0.48 0.52 0.55 0.53 0.48 0.54 0.65 0.77 0.99 1.15 1.06 0.85 0.70 0.59 0.60 0.54 0.33 0.22 0.18 0.19 0.20
0.30 0.30 0.30 0.31 0.31 0.29 0.30 0.32 0.35 0.36 0.39 0.50 0.57 0.58 0.50 0.45 0.42 0.36 0.40 0.36 0.35 0.47 0.49 0.46 0.48 0.56 0.56 0.59 0.52 0.52 0.76 0.98 1.16 1.12 0.99 0.80 0.67 0.56 0.42 0.34 0.25 0.21 0.22
0.22 0.23 0.23 0.24 0.27 0.28 0.29 0.32 0.31 0.31 0.30 0.33 0.43 0.55 0.49 0.39 0.32 0.30 0.31 0.31 0.35 0.41 0.42 0.50 0.48 0.44 0.45 0.57 0.69 0.68 0.70 0.78 1.09 1.30 1.25 0.99 0.72 0.55 0.52 0.50 0.44 0.36 0.29
0.18 0.17 0.17 0.16 0.18 0.23 0.28 0.28 0.33 0.32 0.30 0.25 0.29 0.38 0.42 0.44 0.43 0.36 0.33 0.32 0.40 0.43 0.42 0.42 0.44 0.48 0.57 0.66 0.75 0.79 0.63 0.63 0.85 1.12 1.20 1.07 0.84 0.64 0.56 0.60 0.72 0.70 0.52
0.18 0.18 0.18 0.16 0.15 0.15 0.20 0.23 0.30 0.34 0.35 0.30 0.28 0.31 0.35 0.36 0.40 0.40 0.30 0.28 0.33 0.31 0.33 0.37 0.47 0.50 0.55 0.70 0.90 0.81 0.63 0.55 0.64 0.84 0.95 0.96 0.92 0.77 0.61 0.57 0.80 0.93 0.78
0.18 0.17 0.18 0.19 0.19 0.17 0.15 0.15 0.19 0.26 0.33 0.35 0.30 0.29 0.36 0.37 0.37 0.40 0.29 0.23 0.26 0.23 0.26 0.28 0.38 0.48 0.58 0.69 0.69 0.70 0.69 0.62 0.62 0.68 0.75 0.80 0.82 0.78 0.71 0.73 0.91 1.07 1.09
0.16 0.16 0.16 0.18 0.19 0.19 0.19 0.17 0.15 0.19 0.25 0.31 0.30 0.31 0.33 0.33 0.39 0.41 0.32 0.26 0.30 0.31 0.40 0.39 0.42 0.58 0.64 0.79 0.74 0.71 0.69 0.63 0.51 0.45 0.47 0.53 0.60 0.68 0.74 0.77 0.90 1.02 1.15
0.22 0.21 0.16 0.15 0.16 0.18 0.18 0.18 0.16 0.17 0.20 0.25 0.27 0.37 0.37 0.29 0.36 0.38 0.38 0.43 0.43 0.45 0.51 0.49 0.56 0.77 0.97 0.97 0.94 0.83 0.61 0.55 0.45 0.38 0.33 0.33 0.38 0.46 0.51 0.57 0.65 0.73 0.82
0.23 0.21 0.18 0.15 0.14 0.15 0.17 0.18 0.18 0.20 0.22 0.25 0.31 0.40 0.42 0.39 0.39 0.41 0.45 0.55 0.62 0.53 0.53 0.62 0.72 0.80 0.89 0.87 0.87 0.75 0.55 0.49 0.44 0.37 0.31 0.28 0.27 0.31 0.36 0.38 0.41 0.44 0.49
0.18 0.17 0.16 0.13 0.12 0.13 0.15 0.16 0.18 0.22 0.25 0.31 0.38 0.44 0.50 0.51 0.51 0.51 0.52 0.59 0.73 0.71 0.66 0.66 0.72 0.73 0.72 0.57 0.59 0.58 0.49 0.47 0.40 0.35 0.31 0.27 0.25 0.25 0.27 0.30 0.32 0.34 0.35
0.18 0.15 0.14 0.14 0.12 0.12 0.14 0.16 0.19 0.21 0.24 0.30 0.37 0.42 0.47 0.54 0.61 0.63 0.68 0.69 0.72 0.83 0.77 0.66 0.76 0.84 0.75 0.56 0.46 0.45 0.45 0.41 0.36 0.36 0.34 0.32 0.27 0.24 0.23 0.24 0.26 0.28 0.29
0.15 0.15 0.14 0.13 0.10 0.10 0.13 0.18 0.20 0.21 0.24 0.27 0.34 0.44 0.48 0.50 0.55 0.63 0.75 0.78 0.80 0.92 0.91 0.77 0.85 0.94 0.84 0.71 0.56 0.48 0.38 0.35 0.34 0.37 0.37 0.37 0.34 0.29 0.24 0.21 0.19 0.18 0.19
0.14 0.14 0.14 0.13 0.11 0.09 0.10 0.13 0.17 0.21 0.26 0.28 0.32 0.40 0.48 0.56 0.58 0.63 0.72 0.77 0.84 0.99 1.03 0.96 0.95 1.06 1.09 0.87 0.64 0.47 0.36 0.33 0.31 0.35 0.37 0.38 0.36 0.32 0.26 0.23 0.19 0.14 0.12
0.12 0.14 0.15 0.15 0.14 0.12 0.09 0.09 0.11 0.14 0.19 0.25 0.33 0.37 0.42 0.52 0.61 0.65 0.73 0.84 0.93 1.02 1.10 1.09 1.12 1.23 1.23 1.09 0.83 0.55 0.43 0.35 0.31 0.30 0.32 0.33 0.34 0.31 0.26 0.21 0.19 0.14 0.11
0.11 0.15 0.17 0.17 0.17 0.15 0.09 0.09 0.12 0.12 0.14 0.17 0.24 0.31 0.32 0.37 0.47 0.59 0.67 0.78 0.94 1.09 1.25 1.31 1.33 1.49 1.45 1.24 0.97 0.67 0.54 0.43 0.36 0.30 0.28 0.27 0.27 0.24 0.21 0.19 0.16 0.14 0.10
0.15 0.20 0.21 0.22 0.21 0.14 0.10 0.09 0.10 0.12 0.15 0.17 0.21 0.26 0.27 0.28 0.31 0.38 0.48 0.62 0.77 0.93 1.14 1.32 1.45 1.55 1.59 1.44 1.23 0.99 0.68 0.46 0.38 0.33 0.29 0.29 0.26 0.24 0.19 0.15 0.15 0.12 0.10
0.19 0.24 0.26 0.28 0.27 0.27 0.19 0.13 0.09 0.12 0.15 0.19 0.22 0.24 0.20 0.17 0.24 0.28 0.32 0.40 0.51 0.63 0.79 1.00 1.20 1.30 1.47 1.57 1.41 1.13 0.84 0.62 0.46 0.36 0.30 0.29 0.26 0.26 0.22 0.18 0.18 0.13 0.09
0.24 0.27 0.28 0.31 0.34 0.32 0.24 0.16 0.13 0.14 0.18 0.20 0.23 0.25 0.24 0.22 0.23 0.28 0.32 0.31 0.32 0.37 0.46 0.58 0.76 1.00 1.21 1.41 1.43 1.32 1.20 0.95 0.71 0.51 0.36 0.30 0.25 0.23 0.23 0.19 0.18 0.14 0.09
0.31 0.35 0.38 0.39 0.42 0.41 0.31 0.19 0.15 0.18 0.24 0.24 0.25 0.27 0.30 0.26 0.21 0.21 0.28 0.30 0.29 0.28 0.30 0.39 0.53 0.75 1.00 1.18 1.35 1.33 1.21 1.06 0.84 0.58 0.37 0.26 0.22 0.22 0.23 0.18 0.15 0.15 0.12
0.39 0.41 0.44 0.49 0.53 0.53 0.42 0.24 0.19 0.22 0.29 0.32 0.36 0.37 0.34 0.30 0.26 0.19 0.23 0.27 0.25 0.25 0.27 0.28 0.35 0.49 0.65 0.91 1.11 1.12 1.03 0.94 0.80 0.59 0.36 0.24 0.19 0.18 0.22 0.17 0.11 0.09 0.09